Powrót do katalogu

STARLINK-35618

AktywnyŁącznośćVLEO
NORAD 66423·PAYLOAD·🇺🇸 United States

Wystrzelony Nov 11, 2025 z Cape Canaveral Space Force Station

Loading…

Następne Przeloty (najbliższe 24 godziny)

TLE

ŚwieżeSource: CelesTrak SupGP

Epoka: Sep 14, 2026, 21:01 UTC

1 66423C 25259B   26257.87618056 -.00002100  00000+0 -76079-4 0  2571
2 66423  43.0026 286.0662 0001663 264.4019  84.8875 15.27578199    15

Śledź STARLINK-35618 w czasie rzeczywistym z AllMySat

Download on the App Store